TimeEST,TemperatureF,Dew PointF,Humidity,Sea Level PressureIn,VisibilityMPH,Wind Direction,Wind SpeedMPH,Gust SpeedMPH,PrecipitationIn,Events,Conditions,WindDirDegrees,DateUTC
12:15 AM,28.4,12.2,51,30.17,10.0,North,5.8,-,N/A,,Overcast,350,2013-12-31 05:15:00
12:35 AM,28.4,12.2,51,30.17,10.0,North,4.6,-,N/A,,Overcast,350,2013-12-31 05:35:00
12:55 AM,28.4,12.2,51,30.16,10.0,North,5.8,-,N/A,,Overcast,360,2013-12-31 05:55:00
1:15 AM,26.6,12.2,55,30.15,10.0,North,5.8,-,N/A,,Scattered Clouds,360,2013-12-31 06:15:00
1:35 AM,26.6,12.2,55,30.15,10.0,NNW,3.5,-,N/A,,Clear,330,2013-12-31 06:35:00
1:55 AM,24.8,14.0,64,30.16,10.0,Calm,Calm,-,N/A,,Mostly Cloudy,0,2013-12-31 06:55:00
2:15 AM,26.6,14.0,59,30.17,10.0,WNW,3.5,-,N/A,,Overcast,300,2013-12-31 07:15:00
2:35 AM,26.6,12.2,55,30.17,10.0,NNW,4.6,-,N/A,,Overcast,340,2013-12-31 07:35:00
2:55 AM,26.6,12.2,55,30.15,10.0,Calm,Calm,-,N/A,,Mostly Cloudy,0,2013-12-31 07:55:00
3:15 AM,26.6,12.2,55,30.15,10.0,North,3.5,-,N/A,,Clear,360,2013-12-31 08:15:00
3:35 AM,26.6,12.2,55,30.14,10.0,Calm,Calm,-,N/A,,Clear,0,2013-12-31 08:35:00
3:55 AM,26.6,14.0,59,30.13,10.0,Calm,Calm,-,N/A,,Mostly Cloudy,0,2013-12-31 08:55:00
4:15 AM,26.6,14.0,59,30.13,10.0,Calm,Calm,-,N/A,,Mostly Cloudy,0,2013-12-31 09:15:00
4:35 AM,24.8,12.2,59,30.13,10.0,Calm,Calm,-,N/A,,Partly Cloudy,0,2013-12-31 09:35:00
4:55 AM,26.6,12.2,55,30.13,10.0,Calm,Calm,-,N/A,,Mostly Cloudy,0,2013-12-31 09:55:00
5:15 AM,26.6,14.0,59,30.13,10.0,Calm,Calm,-,N/A,,Overcast,0,2013-12-31 10:15:00
5:35 AM,26.6,14.0,59,30.13,10.0,Calm,Calm,-,N/A,,Overcast,0,2013-12-31 10:35:00
5:55 AM,26.6,14.0,59,30.13,10.0,Calm,Calm,-,N/A,,Mostly Cloudy,0,2013-12-31 10:55:00
6:15 AM,24.8,14.0,64,30.14,10.0,Calm,Calm,-,N/A,,Mostly Cloudy,0,2013-12-31 11:15:00
6:35 AM,26.6,14.0,59,30.13,10.0,Calm,Calm,-,N/A,,Overcast,0,2013-12-31 11:35:00
6:55 AM,26.6,14.0,59,30.14,10.0,Calm,Calm,-,N/A,,Overcast,0,2013-12-31 11:55:00
7:15 AM,26.6,14.0,59,30.14,10.0,Calm,Calm,-,N/A,,Mostly Cloudy,0,2013-12-31 12:15:00
7:35 AM,26.6,15.8,64,30.14,10.0,Calm,Calm,-,N/A,,Mostly Cloudy,0,2013-12-31 12:35:00
7:55 AM,26.6,15.8,64,30.14,10.0,Calm,Calm,-,N/A,,Mostly Cloudy,0,2013-12-31 12:55:00
8:15 AM,26.6,17.6,69,30.13,10.0,Calm,Calm,-,N/A,,Overcast,0,2013-12-31 13:15:00
8:35 AM,26.6,15.8,64,30.13,10.0,South,3.5,-,N/A,,Overcast,190,2013-12-31 13:35:00
8:55 AM,28.4,17.6,64,30.13,10.0,Calm,Calm,-,N/A,,Overcast,0,2013-12-31 13:55:00
9:15 AM,28.4,15.8,59,30.13,10.0,South,4.6,-,N/A,,Overcast,190,2013-12-31 14:15:00
9:35 AM,28.4,14.0,55,30.13,10.0,SSW,5.8,-,N/A,,Overcast,210,2013-12-31 14:35:00
9:55 AM,30.2,15.8,55,30.13,10.0,SSW,4.6,-,N/A,,Overcast,200,2013-12-31 14:55:00
10:15 AM,30.2,17.6,60,30.13,10.0,South,5.8,-,N/A,,Overcast,180,2013-12-31 15:15:00
10:35 AM,30.2,17.6,60,30.13,10.0,SSW,6.9,-,N/A,,Overcast,200,2013-12-31 15:35:00
10:55 AM,32.0,19.4,60,30.12,10.0,SW,4.6,-,N/A,,Mostly Cloudy,220,2013-12-31 15:55:00
11:15 AM,32.0,19.4,60,30.11,10.0,SW,6.9,17.3,N/A,,Scattered Clouds,220,2013-12-31 16:15:00
11:35 AM,32.0,19.4,60,30.10,10.0,WSW,5.8,-,N/A,,Scattered Clouds,240,2013-12-31 16:35:00
11:55 AM,32.0,21.2,64,30.09,10.0,SSW,9.2,-,N/A,,Mostly Cloudy,200,2013-12-31 16:55:00
12:15 PM,32.0,21.2,64,30.08,10.0,SW,4.6,-,N/A,,Mostly Cloudy,220,2013-12-31 17:15:00
12:35 PM,32.0,23.0,69,30.07,10.0,SW,8.1,-,N/A,,Mostly Cloudy,220,2013-12-31 17:35:00
12:55 PM,33.8,23.0,65,30.07,10.0,SW,4.6,-,N/A,,Mostly Cloudy,220,2013-12-31 17:55:00
1:15 PM,33.8,23.0,65,30.07,10.0,SW,5.8,-,N/A,,Mostly Cloudy,230,2013-12-31 18:15:00
1:35 PM,33.8,23.0,65,30.08,10.0,WSW,5.8,-,N/A,,Mostly Cloudy,240,2013-12-31 18:35:00
1:55 PM,35.6,23.0,60,30.09,10.0,West,12.7,17.3,N/A,,Partly Cloudy,260,2013-12-31 18:55:00
2:15 PM,35.6,24.8,65,30.10,10.0,WNW,18.4,21.9,N/A,,Partly Cloudy,290,2013-12-31 19:15:00
2:35 PM,35.6,26.6,70,30.11,10.0,WNW,18.4,24.2,N/A,,Partly Cloudy,290,2013-12-31 19:35:00
2:55 PM,35.6,23.0,60,30.11,10.0,WNW,17.3,25.3,N/A,,Scattered Clouds,290,2013-12-31 19:55:00
3:15 PM,35.6,23.0,60,30.12,10.0,WNW,18.4,24.2,N/A,,Scattered Clouds,300,2013-12-31 20:15:00
3:35 PM,35.6,21.2,56,30.13,10.0,WNW,17.3,24.2,N/A,,Scattered Clouds,300,2013-12-31 20:35:00
3:55 PM,35.6,19.4,52,30.13,10.0,WNW,19.6,25.3,N/A,,Scattered Clouds,300,2013-12-31 20:55:00
4:15 PM,33.8,17.6,52,30.14,10.0,WNW,24.2,28.8,N/A,,Clear,290,2013-12-31 21:15:00
4:35 PM,32.0,15.8,51,30.15,10.0,NW,19.6,27.6,N/A,,Clear,310,2013-12-31 21:35:00
4:55 PM,32.0,14.0,48,30.16,10.0,WNW,17.3,24.2,N/A,,Clear,300,2013-12-31 21:55:00
5:15 PM,32.0,14.0,48,30.18,10.0,WNW,16.1,26.5,N/A,,Clear,300,2013-12-31 22:15:00
5:35 PM,32.0,14.0,48,30.20,10.0,NW,13.8,18.4,N/A,,Clear,310,2013-12-31 22:35:00
5:55 PM,30.2,15.8,55,30.20,10.0,NW,17.3,21.9,N/A,,Clear,310,2013-12-31 22:55:00
6:15 PM,30.2,14.0,51,30.22,10.0,NW,16.1,21.9,N/A,,Clear,320,2013-12-31 23:15:00
6:35 PM,30.2,14.0,51,30.23,10.0,NW,10.4,-,N/A,,Clear,310,2013-12-31 23:35:00
6:55 PM,28.4,14.0,55,30.23,10.0,NW,13.8,18.4,N/A,,Clear,310,2013-12-31 23:55:00
7:15 PM,28.4,14.0,55,30.24,10.0,WNW,11.5,-,N/A,,Clear,300,2014-01-01 00:15:00
7:35 PM,28.4,14.0,55,30.25,10.0,WNW,12.7,-,N/A,,Clear,300,2014-01-01 00:35:00
7:55 PM,28.4,14.0,55,30.26,10.0,WNW,11.5,-,N/A,,Clear,300,2014-01-01 00:55:00
8:15 PM,28.4,14.0,55,30.26,10.0,WNW,12.7,19.6,N/A,,Clear,300,2014-01-01 01:15:00
8:35 PM,28.4,14.0,55,30.26,10.0,WNW,17.3,21.9,N/A,,Clear,300,2014-01-01 01:35:00
8:55 PM,28.4,14.0,55,30.27,10.0,WNW,15.0,20.7,N/A,,Clear,290,2014-01-01 01:55:00
9:15 PM,28.4,14.0,55,30.27,10.0,WNW,11.5,19.6,N/A,,Clear,290,2014-01-01 02:15:00
9:35 PM,26.6,14.0,59,30.28,10.0,WNW,12.7,18.4,N/A,,Clear,300,2014-01-01 02:35:00
9:55 PM,26.6,14.0,59,30.28,10.0,WNW,10.4,-,N/A,,Clear,300,2014-01-01 02:55:00
10:15 PM,26.6,14.0,59,30.29,10.0,NW,8.1,-,N/A,,Clear,310,2014-01-01 03:15:00
10:35 PM,26.6,14.0,59,30.30,10.0,NW,5.8,-,N/A,,Clear,310,2014-01-01 03:35:00
10:55 PM,24.8,14.0,64,30.31,10.0,WNW,3.5,-,N/A,,Clear,290,2014-01-01 03:55:00
11:15 PM,24.8,12.2,59,30.30,10.0,NW,3.5,-,N/A,,Clear,310,2014-01-01 04:15:00
11:35 PM,23.0,12.2,63,30.30,10.0,NW,4.6,-,N/A,,Clear,310,2014-01-01 04:35:00
11:55 PM,23.0,12.2,63,30.30,10.0,West,3.5,-,N/A,,Clear,280,2014-01-01 04:55:00